Regional Weather Roundup
Issued by NWS

Home | Current Version | Previous Version | Text Only | Print | Product List | Glossary On
Versions: 1 2 3 4 5 6 7 8 9 10 11 12 13 14 15 16 17 18 19 20 21 22 23 24 25 26 27 28 29 30 31 32 33 34 35 36 37 38 39 40 41 42 43 44 45 46 47 48 49 50
000
ASUS44 KLIX 042211
RWRLA
LOUISIANA WEATHER ROUNDUP
NATIONAL WEATHER SERVICE NEW ORLEANS LA
500 PM CDT SAT JUL 04 2015

NOTE: "FAIR" INDICATES FEW OR NO CLOUDS BELOW 12,000 FEET WITH NO
      SIGNIFICANT WEATHER AND/OR OBSTRUCTIONS TO VISIBILITY.
      SKY/WX - SKY CONDITION AND SIGNIFICANT WEATHER.
      TMP - AIR TEMPERATURE.    DP   - DEWPOINT TEMPERATURE.
      RH  - RELATIVE HUMIDITY.  PRES - PRESSURE.
      HX  - HEAT INDEX.         WCI  - WIND CHILL INDEX.

*  THESE STATIONS ARE NOT NWS OR FAA STATIONS AND ARE NOT UNDER
   NWS QUALITY CONTROL.

LAZ040-048-061>063-065-066-069-042300-
SOUTHEAST LOUISIANA

CITY           SKY/WX    TMP DP  RH WIND       PRES   REMARKS
N.O. AUDUBON     N/A     88  78  71 MISG        N/A  HX 102
N.O. INTL ARPT CLOUDY    84  71  65 NW8       30.06R
N.O. LAKEFRONT CLOUDY    86  74  67 NW16      30.06R
N.O. DOWNTOWN* FAIR      88  72  58 NW6       30.06R
RESERVE*       FAIR      82  73  74 N3        30.06R
SLIDELL        CLOUDY    81  72  74 VRB5      30.05R
BATON ROUGE    LGT RAIN  76  72  87 CALM      30.06R
BOOTHVILLE     MOSUNNY   88  76  67 SW12      30.05R HX  99
BELLE CHASSE   CLOUDY    86  73  65 W5        30.04R
BOGALUSA*      LGT RAIN  74  69  85 N5        30.10S
GALLIANO*      CLOUDY    89  74  62 MISG      30.05R HX  98
NEW ROADS*     FAIR     N/A N/A N/A CALM      30.05F
GONZALES*      FAIR      80  78  92 CALM      30.05S
HAMMOND*       CLOUDY    75  70  83 N6        30.10R
HOUMA*         MOSUNNY   86  73  66 SW7       30.05R
PORT FOURCHON* PTCLDY    88  75  66 SW8G14    30.06R HX  97

$$

LAZ041-044-053-054-042300-
SOUTHWEST LOUISIANA

CITY           SKY/WX    TMP DP  RH WIND       PRES   REMARKS
LAKE CHARLES   CLOUDY    85  76  74 S8        30.03R
LAFAYETTE      CLOUDY    73  71  93 E3        30.04S
PATTERSON      CLOUDY    82  75  78 N6        30.06R
SALT POINT       N/A     86  76  71 VRB5      30.03R HX  96
NEW IBERIA     NOT AVBL
CHENAULT AIRPK PTSUNNY   82  77  83 CALM      30.04R

$$

LAZ027-028-042300-
CENTRAL LOUISIANA

CITY           SKY/WX    TMP DP  RH WIND       PRES   REMARKS
FORT POLK      HVY RAIN  73  72  94 SW8       30.06R VSB 5/8
ALEXANDRIA INT CLOUDY    76  73  91 NE6       30.00F
ALEXANDRIA     CLOUDY    76  72  87 VRB3      30.03F

$$

LAZ001-002-042300-
NORTHWEST LOUISIANA

CITY           SKY/WX    TMP DP  RH WIND       PRES   REMARKS
SHREVEPORT     TSTM      71  68  90 NE14      30.02F FOG
BARKSDALE AFB  LGT RAIN  70  68  94 E6        30.03R
DTN SHREVEPORT CLOUDY    70  67  90 SE7       30.03F THUNDER

$$

LAZ014-016-042300-
NORTHEAST LOUISIANA

CITY           SKY/WX    TMP DP  RH WIND       PRES   REMARKS
MONROE         LGT RAIN  82  68  62 W8        30.01S
TALLULAH       LGT RAIN  81  72  74 S10       30.01S

$$



USA.gov is the U.S. government's official web portal to all federal, state and local government web resources and services.